Location: ??????????
(31.2156°N, 29.9553°E)
Time: 07:28:07
(UTC+00:00)

CZ-3 Stage 3 - Pass Details

Date: 03 March 2021
Orbit: 284 x 27201 km, 30.5° (Epoch: 15 April)

Event Time Altitude Azimuth Distance (km) Brightness Sun altitude
Rises 17:36:24 0° 275° (W) 4,255 8.4 -21.4°
Reaches altitude 10° 17:40:36 10° 272° (W) 2,056 6.4 -22.3°
Enters shadow 17:43:27 40° 256° (WSW) 581 2.9 -22.9°
